Retour au catalogue

STARLINK-5819

ActifCommunicationsVLEO
NORAD 55780·PAYLOAD·🇺🇸 United States

Lancé Mar 3, 2023 depuis Vandenberg Space Force Base

Loading…

Prochains Passages (prochaines 24 heures)

TLE

FraisSource: CelesTrak SupGP

Époque: Sep 15, 2026, 02:42 UTC

1 55780C 23028AR  26258.11298611 -.00038771  00000+0 -32503-2 0  2582
2 55780  69.9999 106.6848 0002793 271.0585 357.6299 14.98337100    18

Suivez STARLINK-5819 en temps réel avec AllMySat

Download on the App Store